DW8622 Weather Reports


Display with metric or nautical units.
time (UTC)temp
F
wind
direction
speed
MPH
gust
MPH
rain 1hr
in
rain 24hr
in
rain mn
in
humidity
%
barometer
mb
20260905123505 70 269 10.0 19.0 0.00 0.00 0.00 60 1022.4
20260905123005 70 270 10.0 19.0 0.00 0.00 0.00 58 1022.3
20260905122505 70 277 9.0 16.0 0.00 0.01 0.00 59 1022.2
20260905122005 68 283 9.0 21.0 0.00 0.01 0.00 62 1022.2
20260905120506 70 279 9.0 21.0 0.00 0.01 0.00 59 1022.1
20260905115505 73 280 9.0 20.0 0.00 0.01 0.00 59 1022.1
20260905115004 72 279 8.0 19.0 0.00 0.01 0.00 60 1022.0
20260905114505 71 273 9.0 19.0 0.00 0.02 0.00 62 1022.0
20260905113505 71 267 9.0 21.0 0.00 0.03 0.00 60 1021.8
20260905113004 71 270 7.0 15.0 0.00 0.04 0.00 60 1021.8
20260905112004 69 270 8.0 15.0 0.00 0.06 0.00 63 1021.6
20260905111005 70 270 9.0 21.0 0.00 0.16 0.00 60 1021.5
20260905110505 71 266 10.0 21.0 0.00 0.18 0.00 61 1021.5
20260905110005 69 270 9.0 19.0 0.00 0.18 0.00 63 1021.4
20260905105505 69 276 9.0 18.0 0.00 0.19 0.00 61 1021.5
20260905104506 70 272 9.0 21.0 0.00 0.19 0.00 64 1021.3
20260905104005 68 271 10.0 20.0 0.00 0.19 0.00 62 1021.2
20260905103504 69 279 10.0 19.0 0.00 0.19 0.00 61 1021.2
20260905103004 70 284 9.0 18.0 0.00 0.19 0.00 62 1021.1
20260905102504 70 283 9.0 16.0 0.00 0.19 0.00 62 1021.1
20260905102005 70 279 10.0 21.0 0.00 0.19 0.00 64 1021.0
20260905101505 69 276 11.0 21.0 0.00 0.19 0.00 63 1020.9
20260905101005 69 270 10.0 21.0 0.00 0.19 0.00 64 1020.9
20260905100006 69 276 10.0 20.0 0.00 0.19 0.00 62 1020.8
20260905095506 69 276 8.0 19.0 0.00 0.19 0.00 64 1020.8
20260905095006 69 277 8.0 18.0 0.00 0.19 0.00 67 1020.7
20260905094505 69 276 8.0 18.0 0.00 0.19 0.00 64 1020.7
20260905094005 70 275 9.0 19.0 0.00 0.19 0.00 64 1020.6
20260905092005 68 274 10.0 17.0 0.00 0.19 0.00 67 1020.3
20260905091505 67 275 8.0 16.0 0.00 0.19 0.00 71 1020.2
20260905090005 68 274 9.0 20.0 0.00 0.19 0.00 68 1020.1
20260905085505 67 278 9.0 19.0 0.00 0.19 0.00 71 1020.0
20260905085004 67 278 7.0 19.0 0.00 0.19 0.00 72 1020.0
20260905084005 67 270 7.0 14.0 0.00 0.19 0.00 72 1019.9
20260905083505 68 271 7.0 16.0 0.00 0.19 0.00 70 1019.7
20260905083005 67 270 7.0 19.0 0.00 0.19 0.00 73 1019.6
20260905082005 67 276 7.0 16.0 0.00 0.19 0.00 72 1019.4
20260905081505 66 276 8.0 16.0 0.00 0.19 0.00 73 1019.3
20260905081005 66 274 8.0 16.0 0.00 0.19 0.00 73 1019.3
20260905080505 66 274 9.0 18.0 0.00 0.19 0.00 73 1019.2
20260905080005 65 277 9.0 18.0 0.00 0.19 0.00 74 1019.2
20260905075005 65 272 10.0 18.0 0.00 0.19 0.00 75 1019.1
20260905074505 65 274 11.0 18.0 0.00 0.19 0.00 74 1019.1
20260905074006 65 276 10.0 21.0 0.00 0.19 0.00 76 1019.0
20260905073505 65 272 9.0 21.0 0.00 0.19 0.00 76 1019.0
20260905073006 65 271 9.0 18.0 0.00 0.19 0.00 77 1018.9
20260905072505 65 276 9.0 18.0 0.00 0.19 0.00 76 1018.7
20260905072005 64 276 8.0 16.0 0.00 0.19 0.00 78 1018.7
20260905071505 64 274 8.0 16.0 0.00 0.19 0.00 78 1018.7
20260905071005 64 271 9.0 19.0 0.00 0.19 0.00 79 1018.6
20260905070505 64 273 10.0 19.0 0.00 0.19 0.00 78 1018.6
20260905070005 64 276 8.0 17.0 0.00 0.19 0.00 78 1018.5
20260905065507 64 275 7.0 17.0 0.00 0.19 0.00 78 1018.5
20260905064506 64 270 7.0 15.0 0.00 0.19 0.00 79 1018.4
20260905064005 64 266 6.0 17.0 0.00 0.19 0.00 79 1018.4
20260905063005 64 270 7.0 17.0 0.00 0.19 0.00 80 1018.3
20260905062505 63 268 6.0 17.0 0.00 0.19 0.00 81 1018.2
20260905062005 63 268 5.0 12.0 0.00 0.19 0.00 82 1018.1
20260905061506 62 257 5.0 12.0 0.00 0.19 0.00 83 1018.1
20260905061006 62 242 4.0 12.0 0.00 0.19 0.00 86 1018.0
20260905060505 61 236 2.0 11.0 0.00 0.19 0.00 87 1018.0
20260905060005 60 236 1.0 6.0 0.00 0.19 0.00 88 1018.0
20260905055506 60 247 1.0 5.0 0.00 0.19 0.00 89 1018.0
20260905055005 59 242 0.0 3.0 0.00 0.19 0.00 89 1017.9
20260905054005 58 221 0.0 3.0 0.00 0.19 0.00 89 1017.8
20260905053505 58 215 0.0 4.0 0.00 0.19 0.00 90 1017.7
20260905053005 58 215 0.0 4.0 0.00 0.19 0.00 89 1017.7
20260905052006 57 223 0.0 2.0 0.00 0.19 0.00 90 1017.5
20260905050505 57 228 0.0 4.0 0.00 0.19 0.00 89 1017.4
20260905050005 57 212 0.0 4.0 0.00 0.19 0.00 89 1017.4
20260905045004 57 219 0.0 3.0 0.00 0.19 0.00 89 1017.2
20260905043505 57 218 1.0 3.0 0.00 0.19 0.00 88 1017.1
20260905043006 57 222 1.0 3.0 0.00 0.19 0.00 88 1017.1
20260905042505 57 224 0.0 3.0 0.00 0.19 0.00 87 1017.1
20260905042005 57 226 1.0 5.0 0.00 0.19 0.00 87 1017.1
20260905041005 57 218 0.0 3.0 0.00 0.19 0.00 87 1017.0
20260905040505 57 213 0.0 3.0 0.00 0.19 0.00 86 1017.0
20260905040005 57 214 0.0 5.0 0.00 0.19 0.00 86 1017.1
20260905035504 58 221 1.0 5.0 0.00 0.19 0.00 85 1017.0
20260905035005 58 222 1.0 6.0 0.00 0.19 0.00 85 1016.9
20260905034505 58 227 0.0 6.0 0.00 0.19 0.00 85 1016.9
20260905034005 58 220 0.0 3.0 0.00 0.19 0.00 85 1016.9
20260905033005 58 214 0.0 3.0 0.00 0.19 0.00 85 1016.9
20260905032505 58 218 0.0 3.0 0.00 0.19 0.00 84 1016.8
20260905032005 58 218 0.0 3.0 0.00 0.19 0.00 85 1016.8
20260905031504 58 210 0.0 1.0 0.00 0.19 0.00 84 1016.8
20260905031004 58 212 0.0 2.0 0.00 0.19 0.00 83 1016.7
20260905030504 59 213 0.0 2.0 0.00 0.19 0.00 82 1016.7
20260905030005 59 214 0.0 2.0 0.00 0.19 0.00 81 1016.6
20260905025505 60 219 0.0 4.0 0.00 0.19 0.00 80 1016.5
20260905024004 62 261 4.0 9.0 0.00 0.19 0.00 77 1016.5
20260905023504 62 262 4.0 9.0 0.00 0.19 0.00 76 1016.5
20260905023005 62 265 4.0 8.0 0.00 0.19 0.00 76 1016.5
20260905022505 62 269 4.0 10.0 0.00 0.19 0.00 76 1016.4
20260905022005 62 268 5.0 11.0 0.00 0.19 0.00 76 1016.4
20260905021505 62 267 4.0 11.0 0.00 0.19 0.00 76 1016.4
20260905021005 62 267 5.0 10.0 0.00 0.19 0.00 76 1016.3
20260905020005 62 267 5.0 11.0 0.00 0.19 0.00 76 1016.3
20260905015505 62 264 4.0 10.0 0.00 0.19 0.00 76 1016.3
20260905015005 62 265 4.0 9.0 0.00 0.19 0.00 76 1016.2
20260905013505 62 267 4.0 9.0 0.00 0.19 0.00 76 1016.2
20260905013006 62 263 4.0 11.0 0.00 0.19 0.00 76 1016.2
20260905012505 62 264 4.0 11.0 0.00 0.19 0.00 76 1016.2
20260905012005 62 262 4.0 11.0 0.00 0.19 0.00 76 1016.2
20260905011505 62 263 4.0 11.0 0.00 0.19 0.00 76 1016.0
20260905011004 62 262 4.0 9.0 0.00 0.19 0.00 76 1016.1
20260905010505 62 259 3.0 9.0 0.00 0.19 0.00 76 1016.1
20260905010005 63 268 4.0 10.0 0.00 0.19 0.00 76 1016.1
20260905005005 63 262 4.0 9.0 0.00 0.19 0.00 75 1016.1
20260905004505 63 265 3.0 9.0 0.00 0.19 0.00 75 1016.1
20260905004005 63 267 4.0 11.0 0.00 0.19 0.00 75 1016.1
20260905003505 63 267 4.0 11.0 0.00 0.19 0.00 75 1016.1
20260905002005 63 264 5.0 13.0 0.00 0.19 0.00 74 1016.0
20260905001505 63 265 5.0 12.0 0.00 0.19 0.00 74 1016.0
20260905001005 63 266 4.0 10.0 0.00 0.19 0.00 75 1016.0
20260905000505 63 270 5.0 11.0 0.00 0.19 0.00 74 1016.0
20260905000006 63 270 5.0 11.0 0.00 0.19 0.00 75 1015.9
20260904235505 63 263 4.0 10.0 0.00 0.19 0.00 75 1015.9
20260904235005 63 260 4.0 8.0 0.00 0.19 0.00 76 1015.9
20260904234506 63 265 3.0 8.0 0.00 0.19 0.00 75 1015.8
20260904234005 63 262 3.0 8.0 0.00 0.19 0.00 75 1015.8
20260904233505 62 263 3.0 8.0 0.00 0.19 0.00 75 1015.7
20260904233005 63 264 3.0 10.0 0.00 0.19 0.00 75 1015.7
20260904232505 63 262 3.0 10.0 0.00 0.19 0.00 75 1015.7
20260904232005 63 267 4.0 10.0 0.00 0.19 0.00 75 1015.6
20260904231005 63 266 4.0 8.0 0.00 0.19 0.00 74 1015.6
20260904230505 63 267 5.0 10.0 0.00 0.19 0.00 73 1015.6
20260904230006 63 270 5.0 11.0 0.00 0.19 0.00 73 1015.5
20260904225505 63 266 5.0 11.0 0.00 0.19 0.00 73 1015.6
20260904224505 63 262 5.0 10.0 0.00 0.19 0.00 73 1015.6
20260904224005 63 266 4.0 10.0 0.00 0.19 0.00 73 1015.6
20260904223505 63 264 4.0 9.0 0.00 0.19 0.00 73 1015.6
20260904223006 63 265 5.0 10.0 0.00 0.19 0.00 73 1015.6
20260904222005 64 268 6.0 11.0 0.00 0.19 0.00 72 1015.5
20260904220505 64 269 6.0 13.0 0.00 0.19 0.00 72 1015.4
20260904220005 64 272 6.0 14.0 0.00 0.19 0.00 72 1015.3
20260904215005 64 277 6.0 11.0 0.00 0.19 0.19 73 1015.3
20260904214506 64 273 6.0 13.0 0.00 0.19 0.19 73 1015.2
20260904213505 64 270 6.0 16.0 0.00 0.19 0.19 73 1015.1
20260904213005 64 272 6.0 16.0 0.00 0.19 0.19 73 1015.1
20260904212506 64 273 6.0 12.0 0.00 0.19 0.19 73 1015.0
20260904212005 64 272 5.0 12.0 0.00 0.19 0.19 73 1015.0
20260904211505 64 273 5.0 12.0 0.00 0.19 0.19 73 1014.9
20260904211005 64 273 5.0 11.0 0.00 0.19 0.19 73 1014.9
20260904210505 64 270 5.0 11.0 0.00 0.19 0.19 73 1014.9
20260904210006 64 270 4.0 11.0 0.00 0.19 0.19 73 1014.9
20260904205505 64 270 5.0 13.0 0.00 0.19 0.19 72 1014.9
20260904205005 65 267 6.0 13.0 0.00 0.19 0.19 71 1014.9
20260904204505 65 269 7.0 13.0 0.00 0.19 0.19 70 1014.9
20260904204006 65 272 7.0 13.0 0.00 0.19 0.19 70 1014.9
20260904203505 65 270 6.0 13.0 0.00 0.19 0.19 70 1014.8
20260904203005 65 270 6.0 12.0 0.00 0.19 0.19 71 1014.8
20260904202505 65 270 5.0 10.0 0.00 0.19 0.19 71 1014.7
20260904202005 65 269 5.0 12.0 0.00 0.19 0.19 72 1014.8
20260904201505 65 269 5.0 15.0 0.00 0.19 0.19 71 1014.8
20260904200506 65 270 6.0 14.0 0.00 0.19 0.19 72 1014.6
20260904195506 64 270 5.0 12.0 0.00 0.19 0.19 74 1014.6
20260904195005 64 274 4.0 10.0 0.00 0.19 0.19 75 1014.6
20260904194505 64 274 5.0 10.0 0.00 0.19 0.19 75 1014.5
20260904194005 64 277 5.0 11.0 0.00 0.19 0.19 75 1014.5
20260904193506 65 270 4.0 11.0 0.00 0.19 0.19 75 1014.4
20260904192506 65 273 5.0 12.0 0.00 0.19 0.19 75 1014.2
20260904192005 65 275 5.0 11.0 0.00 0.19 0.19 75 1014.2
20260904191505 65 275 4.0 10.0 0.00 0.19 0.19 76 1014.2
20260904191005 65 274 4.0 10.0 0.00 0.19 0.19 76 1014.2
20260904190006 65 275 4.0 13.0 0.00 0.19 0.19 75 1014.0
20260904185505 65 276 4.0 12.0 0.00 0.19 0.19 76 1013.9
20260904184505 65 275 6.0 11.0 0.00 0.19 0.19 75 1013.8
20260904184005 65 273 5.0 11.0 0.00 0.19 0.19 75 1013.8
20260904183505 65 275 6.0 15.0 0.00 0.19 0.19 75 1013.6
20260904183006 65 278 6.0 15.0 0.00 0.19 0.19 75 1013.6
20260904182506 65 276 6.0 15.0 0.00 0.19 0.19 75 1013.6
20260904182005 65 277 6.0 15.0 0.00 0.19 0.19 74 1013.5
20260904181506 65 277 6.0 12.0 0.00 0.19 0.19 74 1013.5
20260904181006 66 275 6.0 14.0 0.00 0.19 0.19 74 1013.5
20260904180006 66 275 7.0 14.0 0.00 0.19 0.19 73 1013.5
20260904175505 66 273 7.0 15.0 0.00 0.19 0.19 73 1013.4
20260904175005 66 270 7.0 15.0 0.00 0.19 0.19 73 1013.2
20260904174505 66 270 7.0 16.0 0.00 0.19 0.19 73 1013.2
20260904174005 66 273 7.0 16.0 0.00 0.19 0.19 73 1013.2
20260904173505 66 271 7.0 14.0 0.00 0.19 0.19 73 1013.2
20260904173005 66 270 7.0 17.0 0.00 0.19 0.19 72 1013.0
20260904171506 66 274 7.0 19.0 0.00 0.19 0.19 71 1013.0
20260904171006 66 276 8.0 19.0 0.00 0.19 0.19 71 1012.8
20260904170006 66 276 8.0 17.0 0.00 0.19 0.19 72 1012.8
20260904165505 67 278 9.0 17.0 0.00 0.19 0.19 73 1012.7
20260904164505 67 273 8.0 18.0 0.00 0.19 0.19 74 1012.7
20260904164005 67 275 10.0 18.0 0.00 0.19 0.19 73 1012.4
20260904163505 67 278 9.0 17.0 0.00 0.19 0.19 73 1012.4
20260904162505 68 268 11.0 20.0 0.00 0.19 0.19 73 1012.3
20260904162005 68 269 12.0 20.0 0.00 0.19 0.19 74 1012.3
20260904161505 68 272 10.0 20.0 0.00 0.19 0.19 74 1012.5
20260904161005 68 273 9.0 18.0 0.00 0.19 0.19 75 1012.2
20260904160505 68 270 10.0 20.0 0.00 0.19 0.19 75 1012.1
20260904160005 68 269 11.0 20.0 0.00 0.19 0.19 74 1012.3
20260904155505 68 266 12.0 22.0 0.00 0.19 0.19 74 1012.2
20260904155005 68 268 11.0 22.0 0.00 0.19 0.19 74 1012.2
20260904154005 68 266 12.0 23.0 0.00 0.19 0.19 74 1012.2
20260904153505 68 270 9.0 23.0 0.00 0.19 0.19 75 1012.2
20260904153005 68 271 8.0 15.0 0.00 0.19 0.19 78 1012.1
20260904152505 68 267 8.0 17.0 0.00 0.19 0.19 78 1012.1
20260904152005 68 266 8.0 17.0 0.00 0.19 0.19 78 1012.0
20260904151505 68 266 9.0 22.0 0.00 0.19 0.19 79 1012.1
20260904151005 68 265 11.0 24.0 0.00 0.19 0.19 78 1012.0
20260904150505 68 268 12.0 24.0 0.00 0.19 0.19 79 1012.0
20260904145507 68 271 10.0 21.0 0.00 0.19 0.19 81 1012.0
20260904145005 68 269 10.0 21.0 0.00 0.19 0.19 81 1011.9
20260904144005 68 265 11.0 24.0 0.00 0.19 0.19 82 1011.7
20260904143505 68 268 11.0 24.0 0.00 0.19 0.19 82 1011.6
20260904143006 68 273 11.0 21.0 0.00 0.19 0.19 84 1011.7
20260904142506 68 273 10.0 20.0 0.00 0.19 0.19 84 1011.7
20260904142005 67 268 10.0 18.0 0.00 0.19 0.19 84 1011.4
20260904141506 67 269 9.0 18.0 0.00 0.19 0.19 85 1011.4
20260904140506 67 274 9.0 19.0 0.00 0.19 0.19 85 1011.5
20260904140005 67 273 9.0 19.0 0.00 0.19 0.19 88 1011.5
20260904135505 67 269 8.0 19.0 0.00 0.19 0.19 87 1011.4
20260904135005 67 265 6.0 16.0 0.00 0.19 0.19 89 1011.4
20260904134505 67 262 7.0 14.0 0.00 0.19 0.19 90 1011.2
20260904133505 66 264 7.0 16.0 0.00 0.19 0.19 91 1011.0
20260904133005 66 264 9.0 17.0 0.00 0.19 0.19 91 1010.9
20260904132505 66 263 9.0 20.0 0.01 0.19 0.19 91 1010.7
20260904132005 66 265 8.0 20.0 0.01 0.19 0.19 91 1010.9
20260904131506 66 270 7.0 15.0 0.01 0.19 0.19 92 1010.8
20260904131006 66 264 7.0 15.0 0.01 0.19 0.19 93 1010.9
20260904130505 66 264 7.0 15.0 0.01 0.19 0.19 93 1010.9
20260904130006 66 266 6.0 12.0 0.01 0.19 0.19 93 1011.0
20260904125506 66 264 6.0 13.0 0.01 0.19 0.19 93 1011.0
20260904125005 66 266 7.0 17.0 0.01 0.19 0.19 94 1010.8
20260904124505 66 268 8.0 17.0 0.02 0.19 0.19 94 1010.7
20260904124005 66 270 8.0 17.0 0.02 0.19 0.19 94 1010.6